Rotterdam, Netherlands

9:07 AM CEST on September 20, 2017 (GMT +0200)
Rotterdam

Weather History for EHRD - May, 2011

Change the Weather History Date:

Sunday, May 22, 2011

  Actual Average Record
Temperature  
Mean Temperature 58 °F -  
Max Temperature 64 °F 65 °F 77 °F (2012)
Min Temperature 53 °F 50 °F 37 °F (2004)
Degree Days  
Heating Degree Days 6    
Growing Degree Days 8 (Base 50)    
Moisture  
Dew Point 51 °F    
Average Humidity 75    
Maximum Humidity 94    
Minimum Humidity 51    
Precipitation  
Precipitation 0.00 in - - ()
Sea Level Pressure  
Sea Level Pressure 30.00 in    
Wind  
Wind Speed 9 mph ()    
Max Wind Speed 25 mph    
Max Gust Speed 33 mph    
Visibility 6.2 miles    
Events Rain    
Averages and records for this station are not official NWS values.
T = Trace of Precipitation, MM = Missing Value Source: Averaged Metar Reports

Daily Weather History Graph

Daily Weather History Graph

Search for Another Location

Airport or City:

Trip Planner

Search our weather history database for the weather conditions in past years. The results will help you decide how hot, cold, wet, or windy it might be!

Date:

Astronomy

May. 22, 2011 Rise Set
Actual Time 5:39 AM CEST 9:39 PM CEST
Civil Twilight 4:55 AM CEST 10:23 PM CEST
Nautical Twilight 3:53 AM CEST 11:25 PM CEST
Astronomical Twilight 2:11 AM CEST 1:06 AM CEST
Moon 1:20 AM CEST (5/22) 10:34 AM CEST (5/22)
Length of Visible Light 17h 27m
Length of Day
15h 59m
Waning Gibbous, 73% of the Moon is Illuminated
May 22
Waning Gibbous
May 24
Last Quarter
Jun 1
New
Jun 9
First Quarter
Jun 15
Full

Hourly Weather History & Observations

Time (CEST) Temp. Dew Point Humidity Pressure Visibility Wind Dir Wind Speed Gust Speed Precip Events Conditions
12:25 AM 53.6 °F 50.0 °F 88% 30.01 in 6.2 mi West 1.2 mph - N/A   Unknown
12:55 AM 55.4 °F 50.0 °F 82% 30.01 in 6.2 mi SW 2.3 mph - N/A   Unknown
1:25 AM 53.6 °F 50.0 °F 88% 29.98 in 6.2 mi SSE 2.3 mph - N/A   Unknown
1:55 AM 55.4 °F 51.8 °F 88% 29.98 in 6.2 mi SSE 1.2 mph - N/A   Unknown
2:00 AM 56 °F 51 °F 77% 29.98 in 9 mi SE 2.2 mph - -   Overcast
2:25 AM 55.4 °F 51.8 °F 88% 29.95 in 6.2 mi SE 1.2 mph - N/A   Unknown
2:55 AM 57.2 °F 51.8 °F 82% 29.95 in 6.2 mi SE 2.3 mph - N/A   Unknown
3:25 AM 59.0 °F 53.6 °F 82% 29.95 in 6.2 mi Variable 2.3 mph - N/A   Unknown
3:55 AM 59.0 °F 53.6 °F 82% 29.95 in 6.2 mi WSW 4.6 mph - N/A   Partly Cloudy
4:25 AM 57.2 °F 53.6 °F 88% 29.95 in 5.6 mi West 4.6 mph - N/A Rain Light Rain
4:55 AM 57.2 °F 55.4 °F 94% 29.95 in 5.0 mi SW 4.6 mph - N/A   Drizzle
5:00 AM 58 °F 55 °F 87% 29.96 in 5 mi SSW 4.5 mph - - Rain Light Rain Showers
5:25 AM 57.2 °F 53.6 °F 88% 29.95 in 3.7 mi West 3.5 mph - N/A Rain Light Rain
5:55 AM 57.2 °F 53.6 °F 88% 29.95 in 3.1 mi SW 2.3 mph - N/A Rain Light Rain Showers
6:25 AM 57.2 °F 55.4 °F 94% 29.92 in - SE 3.5 mph - N/A Rain Light Rain Showers
6:55 AM 57.2 °F 55.4 °F 94% 29.92 in 1.5 mi Variable 2.3 mph - N/A Rain Light Rain
7:25 AM 59.0 °F 57.2 °F 94% 29.92 in 1.9 mi South 5.8 mph - N/A   Drizzle
7:55 AM 59.0 °F 57.2 °F 94% 29.92 in - South 5.8 mph - N/A   Partly Cloudy
8:00 AM 59 °F 57 °F 91% 29.94 in 2 mi SSW 6.7 mph - - Rain Rain
8:25 AM 59.0 °F 57.2 °F 94% 29.92 in - SSW 5.8 mph - N/A   Mist
8:55 AM 60.8 °F 57.2 °F 88% 29.95 in 5.0 mi SW 8.1 mph - N/A   Unknown
9:25 AM 62.6 °F 57.2 °F 82% 29.92 in 6.2 mi SW 8.1 mph - N/A   Unknown
9:55 AM 62.6 °F 53.6 °F 72% 29.92 in 6.2 mi SW 10.4 mph - N/A   Unknown
10:25 AM 62.6 °F 51.8 °F 68% 29.92 in 6.2 mi SW 13.8 mph - N/A   Mostly Cloudy
10:55 AM 60.8 °F 50.0 °F 68% 29.95 in 6.2 mi WSW 16.1 mph - N/A   Overcast
11:00 AM 61 °F 51 °F 62% 29.96 in 22 mi WSW 15.7 mph - -   Overcast
11:25 AM 60.8 °F 53.6 °F 77% 29.95 in 6.2 mi WSW 16.1 mph - N/A   Partly Cloudy
11:55 AM 62.6 °F 55.4 °F 77% 29.95 in 6.2 mi SW 19.6 mph 31.1 mph N/A   Scattered Clouds
12:25 PM 62.6 °F 53.6 °F 72% 29.95 in 6.2 mi SW 21.9 mph 33.4 mph N/A   Mostly Cloudy
12:55 PM 62.6 °F 53.6 °F 72% 29.98 in 6.2 mi WSW 23.0 mph - N/A   Overcast
1:25 PM 62.6 °F 51.8 °F 68% 29.98 in 6.2 mi WSW 20.7 mph - N/A   Scattered Clouds
1:55 PM 62.6 °F 50.0 °F 63% 29.98 in 6.2 mi WSW 21.9 mph - N/A   Partly Cloudy
2:00 PM 62 °F 49 °F 53% 30.00 in 19 mi WSW 24.6 mph - -   Overcast
2:25 PM 60.8 °F 46.4 °F 59% 29.98 in 6.2 mi WSW 21.9 mph 33.4 mph N/A   Unknown
2:55 PM 59.0 °F 50.0 °F 72% 30.01 in 6.2 mi WSW 18.4 mph - N/A   Unknown
3:25 PM 59.0 °F 48.2 °F 67% 30.01 in 6.2 mi WSW 23.0 mph - N/A   Unknown
3:55 PM 60.8 °F 46.4 °F 59% 30.01 in 6.2 mi WSW 25.3 mph - N/A   Unknown
4:25 PM 60.8 °F 46.4 °F 59% 30.01 in 6.2 mi WSW 18.4 mph - N/A   Unknown
4:55 PM 62.6 °F 46.4 °F 55% 30.04 in 6.2 mi WSW 21.9 mph - N/A   Unknown
5:00 PM 61 °F 47 °F 51% 30.04 in 11 mi SW 20.1 mph - -   Overcast
5:25 PM 60.8 °F 48.2 °F 63% 30.04 in 6.2 mi WSW 20.7 mph - N/A   Unknown
5:55 PM 62.6 °F 48.2 °F 59% 30.04 in 6.2 mi WSW 21.9 mph - N/A   Partly Cloudy
6:25 PM 62.6 °F 48.2 °F 59% 30.04 in 6.2 mi WSW 25.3 mph - N/A   Partly Cloudy
6:55 PM 60.8 °F 46.4 °F 59% 30.06 in 6.2 mi WSW 23.0 mph - N/A   Unknown
7:25 PM 60.8 °F 48.2 °F 63% 30.06 in 6.2 mi WSW 25.3 mph - N/A   Unknown
7:55 PM 60.8 °F 46.4 °F 59% 30.09 in 6.2 mi WSW 20.7 mph 33.4 mph N/A   Unknown
8:00 PM 59 °F 47 °F 56% 30.10 in 9 mi WSW 20.1 mph - -   Scattered Clouds
8:25 PM 59.0 °F 48.2 °F 67% 30.09 in 6.2 mi WSW 18.4 mph 29.9 mph N/A   Unknown
8:55 PM 59.0 °F 48.2 °F 67% 30.09 in 6.2 mi WSW 20.7 mph - N/A   Unknown
9:25 PM 57.2 °F 48.2 °F 72% 30.09 in 6.2 mi SW 13.8 mph - N/A   Unknown
9:55 PM 57.2 °F 50.0 °F 77% 30.12 in 6.2 mi SW 13.8 mph - N/A   Unknown
10:25 PM 57.2 °F 50.0 °F 77% 30.12 in 6.2 mi SW 12.7 mph - N/A   Unknown
10:55 PM 55.4 °F 50.0 °F 82% 30.12 in 6.2 mi SW 13.8 mph - N/A   Unknown
11:00 PM 56 °F 51 °F 77% 30.16 in 6 mi SW 13.4 mph - -  
11:25 PM 55.4 °F 50.0 °F 82% 30.15 in 6.2 mi SW 15.0 mph - N/A   Unknown
11:55 PM 55.4 °F 50.0 °F 82% 30.15 in 6.2 mi SW 12.7 mph - N/A   Unknown